[[{"header":{"parameterUnit":"m.s-1","parameterCategory":1,"la1":30.2991,"la2":30.254,"lo1":-89.0895,"lo2":-89.0444,"dy":0.0017,"dx":0.0017,"nx":28,"ny":28,"refTime":"2025-04-04T21:00:00:Z","depth":0,"parameterNumber":2,"parameterNumberName":"U-component_of_WINDS"},"data":[0,0,0,0,0,0,0,0,0,0,0,0,0,0,0,0,0,0,0,0,0,0,0,0,0,0,0,0,0,0,0,0,0,0,0,0,0,0,0,0,0,0,0,0,0,0,0,0,0,0,0,0,0,0,0,0,0,0,0.0129,0.0129,0,0.0116,0.0116,0.0116,0.0084,0.0084,0.0083,0.0082,0.007,0.007,0.0071,0,0,0,0,0,0,0,0,0,0,0,0,0,0.0126,0.0126,0.0129,0.0129,0.0129,0.0116,0.0116,0.0116,0.0084,0.0084,0.0083,0.0082,0.007,0.007,0.0071,0,0,0,0,0,0,0,0,0,0,0,0,0,0.0121,0.0126,0.0129,0.0111,0.011,0.0116,0.0116,0.0116,0.0085,0.0084,0.0083,0.0082,0.007,0.007,0.0071,0.0094,0,0,0.0072,0.0072,0,0,0,0,0,0,0,0,0.0122,0.0122,0.0114,0.0113,0.0111,0.0101,0.011,0.0109,0.0085,0.0094,0.0082,0.0081,0.0081,0.0081,0.008,0.0093,0.0093,0.0072,0.0072,0.0073,0.0073,0,0,0,0,0,0,0,0.0122,0.0122,0.0124,0.0114,0.0112,0.0104,0.0102,0.011,0.0094,0.0093,0.0091,0.009,0.008,0.008,0.008,0.0092,0.0072,0.0072,0.0073,0.0073,0.0122,0.0123,0,0,0,0,0,0,0.0125,0.0122,0.0124,0.0124,0.0114,0.0105,0.0103,0.0105,0.0093,0.0091,0.0091,0.0088,0.008,0.0079,0.0079,0.0105,0.0073,0.0073,0.0073,0.0121,0.0122,0.0123,0,0,0,0,0,0,0.0125,0.0125,0.0125,0.0122,0.0122,0.0106,0.0109,0.0105,0.0105,0.0091,0.0088,0.0094,0.0079,0.0079,0.009,0.0104,0.0073,0.0074,0.012,0.0121,0.0123,0.0156,0,0,0,0,0,0,0.0125,0.0126,0.0134,0.0123,0.0122,0.0136,0.011,0.0106,0.0106,0.0103,0.0093,0.0091,0.0078,0.009,0.0091,0.0104,0.0074,0.0118,0.0121,0.0122,0.0154,0.0159,0.0163,0,0,0,0,0,0.0125,0.0144,0.0135,0.0135,0.0132,0.0137,0.0136,0.0121,0.0107,0.0116,0.0107,0.0091,0.0102,0.0091,0.0092,0.0106,0.0118,0.012,0.0122,0.0152,0.0158,0.0163,0,0,0,0,0,0,0.0158,0.0143,0.0132,0.0148,0.0144,0.0131,0.0142,0.0128,0.0128,0.0125,0.0106,0.0104,0.0118,0.0113,0.0101,0.0127,0.0107,0.011,0.0129,0.0135,0.014,0.014,0.0074,0,0,0,0,0,0.0167,0.0172,0.0158,0.0174,0.0173,0.0158,0.0159,0.0147,0.0142,0.0141,0.0132,0.0128,0.013,0.0133,0.0134,0.0153,0.015,0.0163,0.0167,0.0171,0.0173,0.0182,0.0187,0.0131,0.0131,0.0131,0,0,0.0187,0.0179,0.0183,0.0181,0.0176,0.0181,0.0156,0.0163,0.0167,0.0142,0.0152,0.0145,0.0139,0.0154,0.0161,0.015,0.0188,0.0174,0.0177,0.0177,0.0185,0.019,0.0195,0.0133,0.0132,0.0132,0,0,0.0224,0.0219,0.0231,0.0226,0.022,0.0209,0.0212,0.0202,0.0197,0.0206,0.0187,0.0191,0.0196,0.0192,0.0191,0.0226,0.0212,0.0227,0.0251,0.026,0.0264,0.0268,0.028,0.0284,0.023,0.023,0.023,0,0.0249,0.0256,0.0239,0.0246,0.0246,0.0223,0.0235,0.0232,0.0226,0.0226,0.0215,0.0219,0.0214,0.0227,0.0236,0.0236,0.0238,0.0228,0.0265,0.0268,0.0272,0.0283,0.0287,0.0232,0.0231,0.0231,0.0231,0,0.0286,0.0291,0.0301,0.0296,0.0296,0.0306,0.0291,0.0293,0.0282,0.0273,0.0282,0.0275,0.0274,0.0276,0.0266,0.0288,0.0282,0.0268,0.0248,0.0279,0.0289,0.0294,0.0234,0.0234,0.0233,0.0233,0,0,0.0344,0.0328,0.0332,0.0329,0.032,0.0323,0.0332,0.0331,0.0333,0.033,0.0336,0.034,0.0327,0.0326,0.0314,0.0322,0.0349,0.0307,0.0307,0.0315,0.0373,0.0383,0.0388,0.034,0.0341,0.0341,0.0373,0,0.0378,0.0392,0.0377,0.0393,0.0397,0.0376,0.0383,0.0378,0.037,0.0372,0.0363,0.0366,0.0349,0.0347,0.0354,0.0345,0.0361,0.0342,0.0345,0.0346,0.0347,0.0394,0.0404,0.0435,0.0377,0.0378,0.0378,0,0.042,0.0418,0.0435,0.0424,0.0425,0.0432,0.0429,0.0432,0.0426,0.0419,0.0417,0.0403,0.041,0.0391,0.0401,0.0389,0.0389,0.0384,0.0385,0.0385,0.0364,0.0394,0.0444,0.0449,0.0384,0.0384,0.0384,0,0.046,0.0462,0.0472,0.047,0.0457,0.0462,0.0457,0.045,0.045,0.0448,0.0448,0.0447,0.0446,0.0445,0.0431,0.0418,0.0442,0.0422,0.0436,0.0437,0.0442,0.0442,0.0493,0.0443,0.0443,0.0443,0.0443,0,0.0499,0.051,0.0489,0.0495,0.0507,0.0489,0.0501,0.0494,0.0488,0.0492,0.0473,0.0478,0.0459,0.0461,0.045,0.046,0.046,0.0454,0.0451,0.0455,0.0456,0.0455,0.0452,0.0444,0.0444,0.0444,0.0444,0,0.0545,0.0531,0.0541,0.0528,0.0525,0.0534,0.0523,0.0528,0.0518,0.0524,0.0524,0.0509,0.0511,0.0497,0.0496,0.0489,0.0503,0.0496,0.0505,0.0502,0.0517,0.0516,0.0569,0.0575,0.0523,0.0523,0.0524,0,0.0571,0.0579,0.0567,0.0568,0.0564,0.0567,0.0566,0.0549,0.055,0.0543,0.0549,0.0549,0.0548,0.0552,0.0541,0.054,0.0533,0.0552,0.0533,0.0537,0.0532,0.0532,0.0532,0.0555,0.0556,0.0557,0.0557,0,0.0618,0.0611,0.0611,0.0609,0.0609,0.0607,0.0603,0.0605,0.0587,0.0588,0.059,0.0589,0.0588,0.0588,0.0585,0.058,0.0565,0.0563,0.0566,0.0571,0.0575,0.0572,0.0515,0.0562,0.0561,0.0561,0.0561,0.0561,0.0654,0.0659,0.0652,0.0652,0.0648,0.0645,0.0649,0.0639,0.064,0.0638,0.0628,0.0631,0.0624,0.0618,0.0614,0.0616,0.0607,0.0612,0.0613,0.0614,0.0616,0.0575,0.0616,0.0615,0.0615,0.0615,0.0615,0,0.0699,0.0693,0.0694,0.0689,0.069,0.0676,0.0671,0.0672,0.0675,0.067,0.0669,0.0671,0.0671,0.066,0.0658,0.0662,0.0655,0.0662,0.0661,0.066,0.0625,0.0622,0.0667,0.0667,0.0667,0.0667,0.0667,0.0667,0.0722,0.0731,0.0723,0.0729,0.0723,0.0725,0.0723,0.072,0.0716,0.0718,0.0718,0.0711,0.0703,0.0701,0.07,0.0697,0.0697,0.0706,0.07,0.0668,0.0663,0.0658,0.0655,0.0706,0.0706,0.0735,0.0735,0.0735]},{"header":{"parameterUnit":"m.s-1","parameterCategory":1,"la1":30.2991,"la2":30.254,"lo1":-89.0895,"lo2":-89.0444,"dy":0.0017,"dx":0.0017,"nx":28,"ny":28,"refTime":"2025-04-04T21:00:00:Z","depth":0,"parameterNumber":3,"parameterNumberName":"V-component_of_WINDS"},"data":[0,0,0,0,0,0,0,0,0,0,0,0,0,0,0,0,0,0,0,0,0,0,0,0,0,0,0,0,0,0,0,0,0,0,0,0,0,0,0,0,0,0,0,0,0,0,0,0,0,0,0,0,0,0,0,0,0,0,8.2568,8.257,0,8.2835,8.2839,8.2842,8.2855,8.2852,8.2849,8.2846,8.3121,8.3131,8.3141,0,0,0,0,0,0,0,0,0,0,0,0,0,8.2069,8.2078,8.2567,8.2571,8.2574,8.2835,8.2839,8.2842,8.2855,8.2852,8.2848,8.2844,8.3118,8.313,8.3142,0,0,0,0,0,0,0,0,0,0,0,0,0,8.2306,8.2081,8.2567,8.2612,8.2619,8.2834,8.2839,8.2843,8.2856,8.2852,8.2847,8.2842,8.3114,8.3129,8.3144,8.3333,0,0,8.3191,8.3197,0,0,0,0,0,0,0,0,8.2293,8.2325,8.2602,8.2609,8.2617,8.2807,8.2764,8.3007,8.2857,8.2766,8.2846,8.284,8.302,8.3043,8.3104,8.3345,8.3357,8.3192,8.3201,8.3208,8.3212,0,0,0,0,0,0,0,8.2276,8.2313,8.2673,8.2606,8.2615,8.262,8.2648,8.281,8.2916,8.2774,8.2775,8.2807,8.3024,8.3089,8.311,8.3361,8.3192,8.3205,8.3215,8.3221,8.3774,8.3779,0,0,0,0,0,0,8.2251,8.2299,8.2665,8.2681,8.244,8.2632,8.2664,8.2751,8.2915,8.2935,8.2811,8.2806,8.3065,8.3092,8.312,8.3354,8.3208,8.3222,8.3231,8.3769,8.3775,8.3781,0,0,0,0,0,0,8.224,8.2283,8.2654,8.2491,8.2539,8.2646,8.2743,8.2759,8.2824,8.2942,8.2961,8.2858,8.3062,8.3098,8.328,8.3364,8.3229,8.3243,8.3762,8.3771,8.3778,8.3822,0,0,0,0,0,0,8.2226,8.2279,8.2352,8.2493,8.2547,8.2809,8.2748,8.2767,8.285,8.2847,8.2992,8.3011,8.3061,8.3257,8.3295,8.3382,8.3255,8.3755,8.3766,8.3776,8.3813,8.383,8.3845,0,0,0,0,0,8.2208,8.2353,8.2355,8.2399,8.264,8.2814,8.2845,8.29,8.2857,8.2931,8.3007,8.3006,8.3348,8.3276,8.3319,8.3412,8.375,8.3763,8.3775,8.3806,8.3827,8.3844,0,0,0,0,0,0,8.2219,8.2372,8.2376,8.2571,8.2679,8.2816,8.2911,8.292,8.3043,8.3035,8.3098,8.3131,8.3312,8.338,8.3296,8.3604,8.3544,8.3566,8.3553,8.3574,8.3589,8.357,8.3268,0,0,0,0,0,8.2244,8.2372,8.2499,8.2658,8.2713,8.2802,8.288,8.2913,8.3028,8.3074,8.3164,8.3276,8.3409,8.3495,8.3623,8.3823,8.3856,8.3908,8.3924,8.3936,8.3955,8.4067,8.4093,8.3822,8.3822,8.3822,0,0,8.2296,8.2396,8.2473,8.2663,8.2751,8.2884,8.2841,8.2982,8.3082,8.3096,8.3273,8.3343,8.3473,8.3665,8.3754,8.3727,8.4037,8.3952,8.3961,8.3973,8.4083,8.4108,8.4131,8.383,8.3829,8.3827,0,0,8.2461,8.2548,8.2692,8.2781,8.2915,8.2974,8.3008,8.3145,8.3192,8.3371,8.3385,8.3504,8.3731,8.3824,8.39,8.4102,8.4106,8.4142,8.4225,8.4334,8.4355,8.4375,8.4449,8.4474,8.4159,8.4159,8.416,0,8.251,8.271,8.2764,8.2907,8.2991,8.301,8.3157,8.3241,8.341,8.3468,8.3435,8.3722,8.381,8.4025,8.4075,8.4135,8.4178,8.4126,8.4348,8.4368,8.4386,8.4458,8.4485,8.4163,8.4163,8.4162,8.4162,0,8.2764,8.2903,8.3003,8.3166,8.3261,8.3405,8.3483,8.3572,8.3597,8.366,8.3844,8.3951,8.4102,8.4155,8.4181,8.4375,8.4355,8.4334,8.4276,8.4415,8.4483,8.4511,8.4168,8.4167,8.4166,8.4165,0,0,8.2943,8.3136,8.3171,8.3247,8.3397,8.3505,8.365,8.3799,8.3876,8.3992,8.4116,8.4309,8.4292,8.4379,8.4415,8.4511,8.4666,8.4479,8.4483,8.4512,8.4889,8.4905,8.4935,8.467,8.4675,8.4679,8.4879,0,8.3125,8.3383,8.3438,8.3662,8.3792,8.3813,8.3939,8.4046,8.4109,8.4229,8.4298,8.4435,8.44,8.4453,8.4549,8.4627,8.4743,8.4613,8.4788,8.4793,8.4756,8.4971,8.4987,8.517,8.4906,8.491,8.4914,0,8.3372,8.3495,8.3732,8.3866,8.3923,8.4036,8.4177,8.4291,8.4413,8.4452,8.455,8.4577,8.473,8.4663,8.4877,8.4787,8.4862,8.4911,8.492,8.4939,8.4863,8.4997,8.523,8.5258,8.4956,8.4952,8.4949,0,8.3481,8.3705,8.3876,8.394,8.4101,8.418,8.4251,8.4368,8.4454,8.4578,8.4635,8.4775,8.4852,8.4961,8.5025,8.497,8.5234,8.5172,8.5273,8.5271,8.5328,8.5324,8.5577,8.5374,8.5373,8.5373,8.5372,0,8.3679,8.3824,8.3928,8.4033,8.4196,8.4258,8.4418,8.4489,8.4593,8.4714,8.474,8.4853,8.493,8.5054,8.5106,8.5276,8.531,8.5347,8.5359,8.5346,8.5341,8.5397,8.5386,8.538,8.5378,8.5377,8.5376,0,8.3828,8.3903,8.4092,8.4229,8.4267,8.4382,8.45,8.4604,8.4667,8.482,8.4859,8.4959,8.5107,8.5182,8.5365,8.54,8.5593,8.5596,8.5552,8.5557,8.5654,8.5644,8.5953,8.5997,8.5762,8.5764,8.5766,0,8.3951,8.4063,8.4212,8.4295,8.4368,8.45,8.4589,8.4654,8.4746,8.4894,8.4981,8.513,8.5253,8.5488,8.5578,8.5719,8.5727,8.5826,8.5749,8.5732,8.5731,8.5724,8.5737,8.584,8.5842,8.5844,8.5845,0,8.4161,8.4193,8.4319,8.446,8.4565,8.4679,8.4791,8.4858,8.4942,8.5043,8.5195,8.529,8.5478,8.5627,8.5775,8.5849,8.5863,8.5869,8.59,8.5888,8.5858,8.5878,8.5591,8.5862,8.586,8.5859,8.5858,8.5857,8.4302,8.4403,8.4525,8.4666,8.4757,8.4862,8.4967,8.5044,8.5171,8.533,8.5361,8.5522,8.5643,8.5844,8.5922,8.605,8.6029,8.6074,8.6085,8.6096,8.6101,8.5837,8.6077,8.6077,8.6077,8.6076,8.6076,0,8.4515,8.4595,8.4723,8.488,8.4991,8.4993,8.5118,8.5212,8.5353,8.5464,8.5585,8.576,8.5905,8.6006,8.6154,8.6237,8.6247,8.6273,8.6269,8.6286,8.6111,8.607,8.6263,8.6263,8.6263,8.6263,8.6263,8.6263,8.4639,8.4811,8.4858,8.5077,8.5155,8.5313,8.5385,8.5482,8.5572,8.5766,8.5887,8.5952,8.606,8.6216,8.6349,8.6376,8.643,8.6457,8.6483,8.6318,8.6298,8.6279,8.6242,8.6467,8.6468,8.6648,8.665,8.6651]}]]